Погода в Анастасьевке

Россия / Томская область     56°46′18″N   83°34′23″E
темп.,
°C
ветер,
м/с
пор.,
м/с
влажн.,
%
обл.,
%
осадки,
мм/ч
давл.,
гПа
погр.,
м
19 апреля, пн
пн1901:00+1з3699100 6.7 998582
04:00−7с81494100 3.7 1000847
07:00−10ссз91791100 6.1 10081014
10:00−10сз71385100 0.4 1013942
13:00−8сз7970100 0.4 10191379
16:00−7сз6875100 0.1 10211661
19:00−8сз4880100 0.3 10231367
22:00−13з259415 0.1 102486
20 апреля, вт
вт2001:00−14з39955 0.1 1025195
04:00−14з399642 0.0 1025258
07:00−14з3109563 0.0 1026352
10:00−9зсз477999 0.0 1026715
13:00−5зсз4668100 0.0 10261242
16:00−3зсз4662100 0.1 10241634
19:00−3зюз4673100 0.2 10241047
22:00−6юз3885100 0.0 1024232
21 апреля, ср
ср2101:00−6ююз3889100 0.1 1022525
04:00−6ю3994100 0.3 1020627
07:00−5ю4994100 0.6 1020576
10:00−3ююв4590100 0.6 1021660
13:00−1юв3486100 1.2 1022829
16:000в2378100 0.3 1024867
19:000св3685100 1.1 1027695
22:00−3св4109272 0.3 1030534
22 апреля, чт
чт2201:00−6ссв38945 0.3 1032153
04:00−8ссв389413 0.0 1035154
07:00−8ссв38935 0.0 1038186
10:00−2ссв36785 0.0 1040518
13:00+1св457398 0.1 10411296
16:00+2ссв357194 0.2 10421123
19:00+1ссв368070 0.4 1043813
22:00−3с28935 0.1 1045142
23 апреля, пт
пт2301:00−4ссв27945 0.1 1046132
04:00−4ссв26955 0.0 1046123
07:00−4св27925 0.0 1047170
10:00+1св36755 0.0 1047494
13:00+4св456648 0.0 10461127
16:00+4св466615 0.0 10441064
19:00+3св37775 0.0 1044603
22:00−1св26934 0.0 104498